星链-37294(STARLINK-37294)

导读

STARLINK-37294(NORAD编号68559)是美国太空探索技术公司(SpaceX)星链(Starlink)低轨互联网星座的一颗卫星,隶属于全球最大的商业卫星星座项目。星链计划旨在构建覆盖全球的低轨天基通信系统,提供高速低时延互联网接入服务,该卫星运行于近地轨道,采用Ku/Ka频段通信,是SpaceX持续扩充星座部署中的组成单元。作为二代星链部署的卫星之一,它参与构建全球覆盖的卫星互联网网络,为消费端及特殊场景提供通信服务,星链星座截至2025年底已在轨运行超9000颗活跃卫星,该卫星遵循SpaceX的空间规避与残骸管控标准,降低空间碰撞与太空垃圾风险。

Basic Information
目录编号:
68559
目录名称:
STARLINK-37294
国际标识:
2026-070T
轨道中心:
EARTH
卫星名称:
星链-37294
卫星全名:
星链-37294(STARLINK-37294)
卫星状态:
在轨 (已飞行165 天)
发射日期:
2026-04-02 UTC
国别 :
美国 (US)
星等 :
--
This satellite is enrolled in the Space Conjunction Data Service (SCDS) and the current flight risk assessment level is: No High Risk
Orbit Information
数据来源 国际轨道数据 AOE轨道数据
星历时间 2026-09-14T14:34:15+0800
13小时前
查看轨道信息
2026-09-11T23:00:00+0800
3天前
查看轨道信息
半长轴 6840.821km 6840.798km
偏心率 0.0001158 0.0001521
轨道倾角 53.158° 53.158°
近地点辐角 87.145° 92.883°
升交点赤经 202.668° 215.051°
平近点角 272.969° 27.554°
近地点 461.891km 461.62km
远地点 463.477km 463.702km
周期 93.847分钟 93.847分钟
每日圈数 15.344066 15.344145
Detailed Information
固有亮度:
5
最大亮度:
2.5
卫星平台:
Starlink V1.0
覆盖范围:
全球
运营商:
太空探索技术公司
运营商所在国:
美国
制造商(研发单位):
太空探索技术公司
制造商所在国:
美国
使用方式:
暂无
Satellite Introduction
Starlink 计划是 SpaceX 推出的全球卫星互联网项目,通过发射低轨道卫星,为全球尤其是偏远地区提供高速、低延迟的互联网服务。自 2019 年起,Starlink 已部署数千颗卫星,旨在缩小全球数字鸿沟,推动互联网普及。该项目还为军事、航空等行业提供通信支持,带来广泛经济效益。
2D Orbit Map
3D Orbit Map
Orbit Altitude Analysis Chart
Orbit Inclination Analysis Chart
Orbit Comprehensive Analysis Chart
View Comprehensive Chart
Conjunction Data List
Event ID Objects TCA Miss Dist (km) Collision Risk Probability Collision Risk Index (CRI) Action
CDM_260917-065806-002906-855921
2026-09-17T
06:58:35+0000
0.896 km
远距离
2.448953E-5 中风险 0.63
CDM_260915-214904-298806-855922
2026-09-15T
21:49:19+0000
2.553 km
极远距离
1.675581E-6 低风险 0.39
CDM_260917-061405-210206-855921
2026-09-17T
06:14:00+0000
2.252 km
极远距离
1.607424E-6 低风险 0.39
CDM_260915-173305-299006-855921
2026-09-15T
17:33:11+0000
2.594 km
极远距离
1.355798E-6 低风险 0.38
CDM_260916-093504-941906-855921
2026-09-16T
09:35:07+0000
2.582 km
极远距离
1.326102E-6 低风险 0.37
CDM_260916-211004-777106-855921
2026-09-16T
21:10:49+0000
2.849 km
极远距离
1.266225E-6 低风险 0.37
CDM_260917-021405-477406-855921
2026-09-17T
02:14:27+0000
2.156 km
极远距离
1.211018E-6 低风险 0.37
Miss Distance Evolution Trend with All Objects Subscribe to Flight Safety Assessment
Collision Probability Evolution Trend with All Objects Subscribe to Flight Safety Assessment